GORIZONT 29 [-]

Last updated on Tue Jun 27 2023 00:03:00 GMT+0000 (Coordinated Universal Time)

1 22907U 93072A 23176.64692681 .00000106 00000+0 00000+0 0 9997 2 22907 14.4687 355.4921 0008591 1.7859 2.4750 1.00133678108314
UTC large
Height (km)
Speed (km/s)
/
Latitude / Longitude
Inclination (degrees)
Orbital Period (minutes)
Azimuth
Elevation
Range (km)
Doppler Factor

Next 0 passes for location: London (51.5072 / 0.1276)

Sorry there are no passes over London.